Regional Weather Roundup
Issued by NWS Cleveland, OH

Home | Current Version | Previous Version | Graphics & Text | Print | Product List | Glossary On
Versions: 1 2 3 4 5 6 7 8 9 10 11 12 13 14 15 16 17 18 19 20 21 22 23 24 25 26 27 28 29 30 31 32 33 34 35 36 37 38 39 40 41 42 43 44 45 46 47 48 49 50
000
ASUS41 KCLE 051800
RWRCLE
OHIO REGIONAL WEATHER ROUNDUP
NATIONAL WEATHER SERVICE WILMINGTON, OH
100 PM EST THU MAR 05 2015

NOTE: "FAIR" INDICATES FEW OR NO CLOUDS BELOW 12,000 FEET WITH NO
SIGNIFICANT WEATHER AND/OR OBSTRUCTIONS TO VISIBILITY.

OHZ001>008-015>018-024>027-034-035-043-044-051900-
   NORTHWEST OHIO

CITY           SKY/WX    TMP DP  RH WIND       PRES   REMARKS
DEFIANCE       FAIR      19   1  45 VRB7      30.41S WCI  10
FINDLAY        FAIR      19   4  51 N9        30.37S WCI   8
TOLEDO EXPRESS FAIR      16   3  56 NW9       30.40S WCI   4
TOLEDO EXEC    CLOUDY    15   4  61 E3        30.41S
LIMA           FAIR      18   5  57 N13       30.37R WCI   5
$$

OHZ009>014-019>023-028>033-038-089-051900-
   NORTHEAST OHIO

CITY           SKY/WX    TMP DP  RH WIND       PRES   REMARKS
CLE-HOPKINS    PTSUNNY   14   3  61 N14       30.39S WCI  -1
CLE-LAKEFRONT  FAIR      14   3  61 N9        30.39R WCI   2
CUY CO. ARPT   PTSUNNY   16   5  62 N14       30.37R WCI   1
LORAIN-ELYRIA  PTSUNNY   14   2  58 N12       30.37S WCI   0
ASHTABULA      FAIR      10  -2  58 N8        30.35S WCI  -2
AKRON-CANTON   PTSUNNY   17   2  51 N10       30.29F WCI   5
WOOSTER        NOT AVBL
MANSFIELD      CLOUDY    15   5  64 NW10      30.32R WCI   2
YOUNGSTOWN     CLOUDY    13  -1  54 N12       30.29S WCI  -1
$$

OHZ042-051>053-060>062-070>072-077>081-051900-
  SOUTHWEST OHIO

CITY           SKY/WX    TMP DP  RH WIND       PRES   REMARKS
CINC-COVINGTON CLOUDY    21   7  54 N12       30.36S WCI   9
CINC-LUNKEN    CLOUDY    22   6  50 N13       30.41R WCI  10
HAMILTON       CLOUDY    22   4  46 N14       30.40R WCI   9
DAYTON         NOT AVBL
WRIGHT-PAT AFB NOT AVBL
DAYTON GENERAL CLOUDY    21   4  47 NW9       30.35R WCI  11
WILMINGTON     CLOUDY    19   4  51 N10       30.33S WCI   7
$$

OHZ036-037-039>041-045>050-054>059-063>069-073>076-082>088-051900-
  CENTRAL AND SOUTHEAST OHIO

CITY           SKY/WX    TMP DP  RH WIND       PRES   REMARKS
COLUMBUS       CLOUDY    20   6  55 N10       30.34R WCI   9
OSU AIRPORT    CLOUDY    19   4  51 N7        30.35R WCI  10
BOLTON FIELD   CLOUDY    19   7  58 NW10      30.33F WCI   8
RICKENBACK AFB NOT AVBL
NEWARK         CLOUDY    19   3  49 NW9       30.32S WCI   8
MARION         PTSUNNY   18   6  59 N13       30.35R WCI   5
LANCASTER      CLOUDY    20   6  55 N8        30.32F WCI  10
ZANESVILLE     CLOUDY    18   3  52 NE6       30.31R WCI  10
NEW PHILLY     PTSUNNY   19   2  47 VRB5      30.33R WCI  12
$$


USA.gov is the U.S. government's official web portal to all federal, state and local government web resources and services.